Location: Fort Wayne
(41.1310°N, 85.1290°W)
Time: 13:45:28
(UTC-04:00)

OPAL - Visible Passes

Search period start: 31 August 2015 00:00
Search period end: 10 September 2015 00:00
Orbit: 744 x 796 km, 100.2° (Epoch: 30 August)

Date Brightness Start Highest point End Pass type
(mag) Time Alt. Az. Time Alt. Az. Time Alt. Az.
31 Aug 9.4 00:18:25 10° N 00:22:00 26° NW 00:22:00 26° NW visible
31 Aug 9.6 22:04:50 10° NE 22:05:39 13° ENE 22:05:39 13° ENE visible
31 Aug 8.7 23:42:30 10° N 23:45:56 39° NNW 23:45:56 39° NNW visible
01 Sep 8.8 23:07:04 10° NNE 23:09:52 33° NNE 23:09:52 33° NNE visible
02 Sep 10.0 00:47:25 10° NNW 00:50:09 16° NW 00:50:09 16° NW visible
02 Sep 9.3 22:32:08 10° NE 22:33:48 19° NE 22:33:48 19° NE visible
03 Sep 9.4 00:11:00 10° N 00:14:06 27° NW 00:14:06 27° NW visible
03 Sep 9.0 23:35:13 10° N 23:38:02 33° N 23:38:02 33° N visible
04 Sep 9.2 22:59:54 10° NNE 23:01:58 24° NNE 23:01:58 24° NNE visible
05 Sep 9.9 00:39:49 10° NNW 00:42:14 18° NW 00:42:14 18° NW visible
05 Sep 9.7 22:25:08 10° NE 22:25:54 13° NE 22:25:54 13° NE visible
06 Sep 9.5 00:03:37 10° N 00:06:11 26° NNW 00:06:11 26° NNW visible
06 Sep 9.3 23:27:58 10° NNE 23:30:08 25° NNE 23:30:08 25° NNE visible
07 Sep 10.4 01:09:29 10° NW 01:10:24 11° NW 01:10:24 11° NW visible
07 Sep 9.6 22:52:47 10° NNE 22:54:04 17° NE 22:54:04 17° NE visible
08 Sep 10.0 00:32:18 10° N 00:34:21 19° NNW 00:34:21 19° NNW visible
08 Sep 9.6 23:56:18 10° N 23:58:17 23° N 23:58:17 23° N visible
09 Sep 9.6 23:20:46 10° NNE 23:22:14 19° NNE 23:22:14 19° NNE visible
